Weather in Trusovo

Russia / Astrakhan Oblast     46°20′45″N   47°57′09″E
temp.,
°C
wind,
m/s
gust,
m/s
humid.,
%
clouds,
%
prec.,
mm/h
press.,
hPa
HPBL,
m
1 august, sun
sun101:00+24sse23605 0.0 101151
04:00+23se226216 0.0 101138
07:00+26sse125118 0.0 1012120
10:00+32se342928 0.0 10121349
13:00+36ssw55257 0.0 10112602
16:00+37s442481 0.0 10102894
19:00+35s542195 0.0 1010999
22:00+27ssw45385 0.0 101185
2 august, mon
mon201:00+25ssw22435 0.0 101131
04:00+27se123584 0.0 101123
07:00+28ene223132 0.0 101287
10:00+35ese34175 0.0 10121072
13:00+40sse561199 0.0 10114046
16:00+40se769100 0.0 10103975
19:00+36se571478 0.0 1011796
22:00+28se343783 0.0 101174
3 august, tue
tue301:00+26sse344432 0.0 101151
04:00+25s113896 0.0 101113
07:00+28ene2228100 0.0 101246
10:00+37ese23132 0.0 1012913
13:00+41sse4580 0.0 10104454
16:00+41s7583 0.0 10094589
19:00+38s67110 0.0 1009812
22:00+29s34235 0.0 101149
4 august, wed
wed401:00+27ssw33280 0.0 101036
04:00+25sw22460 0.0 101027
07:00+28s23360 0.0 101177
10:00+37s33140 0.0 1011929
13:00+41sw5590 0.0 10103744
16:00+41ssw6495 0.0 10094006
19:00+37s67135 0.0 1010641
22:00+29sw33315 0.0 101150
5 august, thu
thu501:00+27w33375 0.0 101141
04:00+27nw343132 0.0 101061
07:00+28ne373966 0.0 1011203
10:00+33nnw9103387 0.0 10121337
13:00+30n6736100 0.0 1013821
16:00+29nw464042 0.0 1013617
19:00+32nnw56310 0.0 10121582
22:00+28n34400 0.0 1013109